Location: Napier
(39.4830°S, 176.9170°E)
Time: 16:30:31
(UTC+12:00)

ERS-1 Rocket - Pass Details

Date: 24 January 2019
Orbit: 752 x 759 km, 98.5° (Epoch: 18 April)

Event Time Altitude Azimuth Distance (km) Brightness Sun altitude
Rises 22:37:09 0° 155° (SSE) 3,243 6.6 -19.5°
Reaches altitude 10° 22:39:46 10° 144° (SE) 2,309 5.6 -19.8°
Enters shadow 22:43:53 29° 90° (E) 1,384 4.0 -20.4°
